Nassau, Bahamas

4:23 AM EST on February 18, 2018 (GMT -0500)
Nassau International

Weather History for MYNN - October, 2013

Change the Weather History Date:

Wednesday, October 30, 2013

  Actual Average Record
Temperature  
Mean Temperature 81 °F -  
Max Temperature 86 °F 82 °F 90 °F (2015)
Min Temperature 76 °F 68 °F -11 °F (2008)
Cooling Degree Days 16    
Growing Degree Days 31 (Base 50)    
Moisture  
Dew Point 67 °F    
Average Humidity 63    
Maximum Humidity 78    
Minimum Humidity 46    
Precipitation  
Precipitation 0.00 in 0.07 in - ()
Sea Level Pressure  
Sea Level Pressure 30.11 in    
Wind  
Wind Speed 9 mph ()    
Max Wind Speed 17 mph    
Max Gust Speed -    
Visibility 6.9 miles    
Events      
Averages and records for this station are not official NWS values.
T = Trace of Precipitation, MM = Missing Value Source: Averaged Metar Reports

Daily Weather History Graph

Daily Weather History Graph

Search for Another Location

Airport or City:

Trip Planner

Search our weather history database for the weather conditions in past years. The results will help you decide how hot, cold, wet, or windy it might be!

Date:

Astronomy

Oct. 30, 2013 Rise Set
Actual Time 7:16 AM EDT 6:30 PM EDT
Civil Twilight 6:52 AM EDT 6:53 PM EDT
Nautical Twilight 6:25 AM EDT 7:20 PM EDT
Astronomical Twilight 5:58 AM EDT 7:47 PM EDT
Moon 3:27 AM EDT (10/30) 3:53 PM EDT (10/30)
Length of Visible Light 12h 01m
Length of Day
11h 14m
Waning Crescent, 17% of the Moon is Illuminated
Oct 30
Waning Crescent
Nov 3
New
Nov 10
First Quarter
Nov 17
Full
Nov 25
Last Quarter

Hourly Weather History & Observations

Time (EDT) Temp. Heat Index Dew Point Humidity Pressure Visibility Wind Dir Wind Speed Gust Speed Precip Events Conditions
12:00 AM 78.8 °F - 66.2 °F 65% 30.12 in 6.2 mi ENE 10.4 mph - N/A   Scattered Clouds
1:00 AM 78.8 °F - 66.2 °F 65% 30.13 in 6.2 mi ENE 10.4 mph - N/A   Scattered Clouds
2:00 AM 78.8 °F - 68.0 °F 69% 30.11 in 6.2 mi ENE 10.4 mph - N/A   Scattered Clouds
4:00 AM 77.0 °F - 64.4 °F 65% 30.09 in 6.2 mi East 5.8 mph - N/A   Scattered Clouds
5:00 AM 78 °F - 68 °F 64% 30.09 in 9 mi East 5.8 mph - -   Partly Cloudy
5:00 AM 77.0 °F - 68.0 °F 74% 30.09 in 6.2 mi East 5.8 mph - N/A   Scattered Clouds
6:00 AM 77.0 °F - 64.4 °F 65% 30.08 in 6.2 mi East 6.9 mph - N/A   Scattered Clouds
7:00 AM 77.0 °F - 62.6 °F 61% 30.10 in 6.2 mi East 6.9 mph - N/A   Partly Cloudy
8:00 AM 78 °F - 67 °F 60% 30.13 in 9 mi East 10.4 mph - -   Scattered Clouds
8:00 AM 78.8 °F - 66.2 °F 65% 30.12 in 6.2 mi East 10.4 mph - N/A   Partly Cloudy
9:00 AM 80.6 °F 82.7 °F 66.2 °F 61% 30.14 in 6.2 mi ENE 15.0 mph - N/A   Partly Cloudy
10:00 AM 80.6 °F 82.7 °F 66.2 °F 61% 30.16 in 6.2 mi ENE 11.5 mph - N/A   Scattered Clouds
11:00 AM 84 °F - - % 30.17 in 9 mi NNE 11.5 mph - -   Partly Cloudy
11:00 AM 84.2 °F 87.3 °F 68.0 °F 58% 30.17 in 6.2 mi NNE 11.5 mph - N/A   Scattered Clouds
12:00 PM 84.2 °F 85.6 °F 64.4 °F 51% 30.15 in 6.2 mi NNE 17.3 mph - N/A   Scattered Clouds
1:00 PM 82.4 °F 84.6 °F 66.2 °F 58% 30.13 in 6.2 mi East 8.1 mph - N/A   Scattered Clouds
2:00 PM 85 °F - 67 °F 46% 30.10 in 9 mi East 15.0 mph - -   Partly Cloudy
2:00 PM 86.0 °F 89.4 °F 68.0 °F 55% 30.10 in 6.2 mi East 15.0 mph - N/A   Unknown
3:00 PM 82.4 °F 85.4 °F 68.0 °F 62% 30.09 in 6.2 mi ENE 11.5 mph - N/A   Scattered Clouds
4:00 PM 78.8 °F - 71.6 °F 78% 30.12 in 6.2 mi East 10.4 mph - N/A   Scattered Clouds
5:00 PM 83 °F - 71 °F 58% 30.07 in 9 mi ENE 11.5 mph - -   Partly Cloudy
5:00 PM 82.4 °F 86.3 °F 69.8 °F 66% 30.06 in 6.2 mi ENE 11.5 mph - N/A   Scattered Clouds
6:00 PM 80.6 °F 83.2 °F 68.0 °F 65% 30.07 in 6.2 mi ENE 9.2 mph - N/A   Scattered Clouds
7:00 PM 80.6 °F 82.7 °F 66.2 °F 61% 30.09 in 6.2 mi ENE 11.5 mph - N/A   Scattered Clouds
8:00 PM 80 °F - 69 °F 62% 30.10 in 9 mi ENE 11.5 mph - -   Scattered Clouds
8:00 PM 80.6 °F 83.9 °F 69.8 °F 70% 30.09 in 6.2 mi ENE 11.5 mph - N/A   Partly Cloudy
9:00 PM 78.8 °F - 64.4 °F 61% 30.10 in 6.2 mi ENE 9.2 mph - N/A   Partly Cloudy
10:00 PM 78.8 °F - 66.2 °F 65% 30.11 in 6.2 mi East 9.2 mph - N/A   Partly Cloudy
11:00 PM 79 °F - 68 °F 61% 30.12 in 9 mi East 5.8 mph - -   Scattered Clouds
11:00 PM 78.8 °F - 68.0 °F 69% 30.12 in 6.2 mi East 5.8 mph - N/A   Partly Cloudy